Hourly Data Report for May 14, 2020

TORONTO CITY
ONTARIO
Current Station Operator: ECCC - MSC

43°40'00.000" N
79°24'00.000" W
112.50 m
6158355
71508
XTO

Download Data

Hourly Data (May 2020)
Hourly Data Report for May 14, 2020
TIME
LST
Temp Definition
°C
Dew Point Definition
°C
Rel Hum Definition
%
Precip. Amount Definition
mm

Wind Dir Definition
10's deg

Wind Spd Definition
km/h
Visibility Definition
km
Stn Press Definition
kPa
Hmdx Definition


Wind Chill Definition


Weather Definition


00:00 7.7 -4.4 42 0.0       101.17     LegendNANA
01:00 7.2 -4.6 43 0.0       101.13     LegendNANA
02:00 7.6 -3.0 47 0.0       101.10     LegendNANA
03:00 8.7 -4.5 39 0.0       101.07     LegendNANA
04:00 7.9 -2.9 47 0.0       101.03     LegendNANA
05:00 7.6 -3.2 46 0.0       101.01     LegendNANA
06:00 8.0 -4.7 40 0.0       101.03     LegendNANA
07:00 8.5 -5.5 37 0.0       101.00     LegendNANA
08:00 8.7 -5.7 36 0.0       100.94     LegendNANA
09:00 9.5 -5.7 34 0.0       100.88     LegendNANA
10:00 9.4 -2.2 44 0.0       100.80     LegendNANA
11:00 10.3 -1.4 44 0.0       100.73     LegendNANA
12:00 10.3 -1.0 46 0.0       100.59     LegendNANA
13:00 9.5 -1.5 46 0.0       100.47     LegendNANA
14:00 9.1 -1.2 48 0.0       100.34     LegendNANA
15:00 9.8 -2.1 43 0.0       100.29     LegendNANA
16:00 8.9 1.2 59 0.0       100.26     LegendNANA
17:00 8.2 3.0 70 0.5       100.21     LegendNANA
18:00 7.8 4.6 81 1.0       100.12     LegendNANA
19:00 8.2 6.0 86 0.2       100.01     LegendNANA
20:00 8.5 6.3 86 0.0       100.00     LegendNANA
21:00 8.7 6.8 87 0.0       100.02     LegendNANA
22:00 8.9 7.1 88 0.0       99.96     LegendNANA
23:00 9.1 7.3 88 0.0       99.92     LegendNANA

Notes on Data Quality.

Legend

  • E = Estimated
  • M = Missing
  • NA = Not Available*
  • [empty] = Indicates an unobserved value
Date modified: